Flag Weather past 2 weeks in Incheon, South Korea

Now
48 °F

Light rain. Fog.


Feels Like: 44 °F
Forecast: 42 / 51 °F
Wind: 9 mph from East

Location: Incheon International Airport

Current Time: Nov 28, 2014 at 1:08:59 PM

Latest Report: Nov 28, 2014 at 12:30 PM


Visibility: 2 mi

Pressure: 29.86 "Hg

Humidity: 87%

Dew point: 45 °F

Location of IncheonLocation

Historic Weather in Incheon — Graph

°F

Incheon temperature yesterday

Maximum temperature yesterday: 57 °F (at 2:00 PM)
Minimum temperature yesterday: 39 °F (at 4:00 AM)
Average temperature yesterday: 48 °F

Past Weeks' High & Low Weather Summary

 TemperatureHumidityPressure
High57 °F (Nov 21, 1:00 PM)94% (Nov 22, 7:30 AM)30.45 "Hg (Nov 22, 7:30 AM)
Low30 °F (Nov 14, 6:30 AM)21% (Nov 15, 2:30 PM)29.89 "Hg (Nov 28, 12:00 PM)
Average45 °F63%30.23 "Hg
* Reported Nov 13 12:00 Noon — Nov 28 12:00 Noon, Incheon, Weather by CustomWeather, © 2014

Note: Actual official high and low records may vary slightly from our data, if they occured in-between our weather recording intervals... More about our weather records

Advertising

Incheon weather history for previous 24 hours

 ConditionsComfort  
Time TempWeatherWind HumidityBarometerVisibility
12:00 PM
Nov 28
48 °FRain. Fog.9 mph87%29.89 "Hg1 mi
11:00 AM48 °FRain. Fog.6 mph87%29.95 "Hg2 mi
10:30 AM48 °FLight rain. Fog.13 mph87%29.92 "Hg3 mi
10:00 AM48 °FRain. Fog.9 mph87%29.95 "Hg2 mi
9:30 AM48 °FRain. Fog.8 mph82%29.98 "Hg2 mi
9:00 AM48 °FRain. Fog.9 mph82%29.98 "Hg2 mi
8:30 AM48 °FLight rain. Fog.9 mph82%30.01 "Hg2 mi
8:00 AM50 °FLight rain. Mostly cloudy.8 mph71%30.01 "Hg4 mi
7:30 AM48 °FFog.8 mph76%30.04 "Hg2 mi
7:00 AM48 °FOvercast.8 mph76%30.04 "Hg4 mi
6:30 AM46 °FMostly cloudy.8 mph82%30.07 "Hg4 mi
6:00 AM46 °FMostly cloudy.9 mph82%30.07 "Hg4 mi
5:30 AM48 °FMostly cloudy.7 mph76%30.09 "Hg4 mi
5:00 AM48 °FOvercast.6 mph76%30.09 "Hg4 mi
4:30 AM46 °FMostly cloudy.5 mph82%30.12 "Hg4 mi
4:00 AM48 °FPartly cloudy.5 mph76%30.12 "Hg4 mi
3:30 AM48 °FPartly cloudy.3 mph82%30.12 "Hg4 mi
3:00 AM48 °FPassing clouds.3 mph82%30.12 "Hg4 mi
2:30 AM46 °FFog.5 mph87%30.12 "Hg3 mi
2:00 AM48 °FFog.6 mph82%30.09 "Hg3 mi
1:30 AM46 °FFog.6 mph87%30.12 "Hg2 mi
1:00 AM48 °FFog.7 mph87%30.12 "Hg2 mi
12:30 AM46 °FFog.6 mph93%30.12 "Hg2 mi
12:00 AM46 °FFog.6 mph93%30.15 "Hg1 mi
11:30 PM
Nov 27
46 °FCool.5 mph93%30.15 "Hg1 mi
11:00 PM46 °FCool.5 mph93%30.15 "Hg2 mi
10:30 PM46 °FCool.5 mph87%30.15 "Hg3 mi
10:00 PM46 °FFog.6 mph93%30.15 "Hg3 mi
9:30 PM46 °FFog.2 mph93%30.18 "Hg3 mi
9:00 PM48 °FCool.2 mph87%30.18 "Hg3 mi
8:30 PM48 °FPassing clouds.2 mph87%30.18 "Hg4 mi
8:00 PM48 °FClear.1 mph87%30.18 "Hg4 mi
7:30 PM48 °FClear.2 mph82%30.18 "Hg4 mi
7:00 PM52 °FClear.3 mph82%30.18 "Hg10 mi
6:30 PM52 °FPassing clouds.3 mph82%30.18 "HgN/A
6:00 PM52 °FPassing clouds.5 mph82%30.18 "HgN/A
5:30 PM54 °FPassing clouds.5 mph77%30.18 "HgN/A
5:00 PM54 °FScattered clouds.3 mph77%30.18 "HgN/A
4:30 PM54 °FScattered clouds.6 mph77%30.18 "HgN/A
4:00 PM55 °FScattered clouds.7 mph72%30.18 "HgN/A
3:30 PM55 °FBroken clouds.6 mph72%30.18 "HgN/A
3:00 PM57 °FScattered clouds.5 mph63%30.18 "HgN/A
2:30 PM55 °FBroken clouds.7 mph72%30.21 "Hg5 mi
2:00 PM57 °FBroken clouds.7 mph67%30.21 "Hg5 mi
1:30 PM55 °FPartly sunny.7 mph67%30.21 "Hg5 mi
1:00 PM55 °FPartly sunny.7 mph67%30.21 "Hg4 mi
Weather by CustomWeather, © 2014

See weather overviewHow to use our weather pages